LROP

Bucharest/Henri Coandă International Airport

Airport
ICAO code
LROP
IATA Code
OTP
Summary
ICAO Region
EUR
ICAO Territory
Location

Otopeni, Bucuresti

Serving
Bucharest
Elevation
314 ft
Coordinates
44° 34' 18" N , 26° 5' 6" E
KCC
Metar
Observation
LROP 281930Z 25003KT 3800 -SN BR BKN004 OVC008 00/00 Q1017 NOSIG
Station
Bucuresti Otopeni
Date/Time
2023-01-28 19:30:00
Wind direction
250°
Wind speed
03 kts
Lowest cloud amount
broken clouds
Temperature
0°C
Dew point
0°C
Humidity
100%
QNH
1017 hPa
Weather condition
n/a

Description

International airport serving the capital city of Romania.

Climatology

Humid “subtropical” climate (Köppen climate classification Cfa) - characterized by hot, humid summers and cool winters. Significant amounts of precipitation occur in all seasons in most areas. Winter rainfall (and sometimes snowfall) is associated with large storms that the westerlies steer from west to east. Most summer rainfall occurs during thunderstorms.

Runways

Designator Length Width Surface Rops
08L/26R 3500 45 ASP Yes/Yes
08R/26L 3500 45 ASP Yes/Yes

Airport map

Aerial View

SKYbrary Partners:

Safety knowledge contributed by: